ECHOSTAR 15

Last updated on Tue Sep 22 2026 00:03:11 GMT+0000 (Coordinated Universal Time)

1 36792U 10034A 26264.49130863 .00000000 00000+0 00000+0 0 9997 2 36792 0.0167 177.0377 0002365 337.3573 264.0429 1.00270682 59289
UTC large
Height (km)
Speed (km/s)
/
Latitude / Longitude
Inclination (degrees)
Orbital Period (minutes)
Azimuth
Elevation
Range (km)
Doppler Factor

Next 0 passes for location: London (51.5072 / 0.1276)

No passes found over London.
ECHOSTAR 15